Weather History for Ponca City, OK

Change the Weather History Date:

Friday, August 16, 2013

  Actual Average Record
Temperature  
Mean Temperature 71 °F -  
Max Temperature 80 °F 94 °F 109 °F (1956)
Min Temperature 62 °F 70 °F 60 °F (1948)
Cooling Degree Days 6    
Growing Degree Days 21 (Base 50)    
Moisture  
Dew Point 63 °F    
Average Humidity 81    
Maximum Humidity 94    
Minimum Humidity 56    
Precipitation  
Precipitation 0.01 in - - ()
Sea Level Pressure  
Sea Level Pressure 30.06 in    
Wind  
Wind Speed 2 mph (East)    
Max Wind Speed 7 mph    
Max Gust Speed -    
Visibility 9 miles    
Events      
Averages and records for this station are not official NWS values.
T = Trace of Precipitation, MM = Missing Value Source: NWS Daily Summary

Daily Weather History Graph

Daily Weather History Graph

Search for Another Location

Airport:

Trip Planner

Search our weather history database for the weather conditions in past years. The results will help you decide how hot, cold, wet, or windy it might be!

Date:

Astronomy

Aug. 16, 2013 Rise Set
Actual Time 6:46 AM CDT 8:17 PM CDT
Civil Twilight 6:19 AM CDT 8:45 PM CDT
Nautical Twilight 5:46 AM CDT 9:18 PM CDT
Astronomical Twilight 5:11 AM CDT 9:52 PM CDT
Moon 4:35 PM CDT (8/16) 1:53 AM CDT (8/16)
Length of Visible Light 14h 25m
Length of Day
13h 31m
Waxing Gibbous, 75% of the Moon is Illuminated
Aug 16
Waxing Gibbous
Aug 20
Full
Aug 28
Last Quarter
Sep 5
New
Sep 12
First Quarter

Hourly Weather History & Observations

Time (CDT) Temp. Heat Index Dew Point Humidity Pressure Visibility Wind Dir Wind Speed Gust Speed Precip Events Conditions
12:53 AM 64.0 °F - 62.1 °F 93% 30.01 in 10.0 mi Calm Calm - 0.01 in   Scattered Clouds
1:53 AM 63.0 °F - 61.0 °F 93% 30.01 in 7.0 mi NNE 3.5 mph - N/A   Scattered Clouds
2:40 AM 62.6 °F - 60.8 °F 94% 30.04 in 5.0 mi Calm Calm - N/A   Mostly Cloudy
2:53 AM 63.0 °F - 61.0 °F 93% 30.01 in 6.0 mi Calm Calm - N/A   Mostly Cloudy
3:13 AM 62.6 °F - 60.8 °F 94% 30.05 in 9.0 mi Calm Calm - N/A   Scattered Clouds
3:18 AM 62.6 °F - 60.8 °F 94% 30.05 in 2.5 mi Calm Calm - N/A   Mostly Cloudy
3:20 AM 62.6 °F - 60.8 °F 94% 30.05 in 1.8 mi Calm Calm - N/A   Mostly Cloudy
3:30 AM 62.6 °F - 60.8 °F 94% 30.05 in 3.0 mi Calm Calm - N/A   Mostly Cloudy
3:53 AM 64.0 °F - 62.1 °F 93% 30.02 in 6.0 mi Calm Calm - N/A   Overcast
4:48 AM 64.4 °F - 62.6 °F 94% 30.04 in 10.0 mi Calm Calm - N/A   Overcast
4:53 AM 64.0 °F - 62.1 °F 93% 30.01 in 10.0 mi Calm Calm - N/A   Overcast
5:18 AM 64.4 °F - 62.6 °F 94% 30.04 in 10.0 mi Calm Calm - N/A   Overcast
5:53 AM 64.0 °F - 62.1 °F 93% 30.01 in 10.0 mi NE 3.5 mph - N/A   Overcast
6:53 AM 64.9 °F - 62.1 °F 90% 30.04 in 10.0 mi Calm Calm - N/A   Overcast
7:33 AM 64.4 °F - 62.6 °F 94% 30.07 in 10.0 mi East 3.5 mph - N/A   Overcast
7:53 AM 64.9 °F - 62.1 °F 90% 30.05 in 10.0 mi SSE 3.5 mph - N/A   Mostly Cloudy
8:53 AM 66.9 °F - 62.1 °F 84% 30.06 in 10.0 mi Calm Calm - N/A   Overcast
9:25 AM 66.2 °F - 62.6 °F 88% 30.11 in 10.0 mi WNW 3.5 mph - N/A   Overcast
9:53 AM 66.9 °F - 63.0 °F 87% 30.09 in 10.0 mi WNW 3.5 mph - N/A   Overcast
10:42 AM 69.8 °F - 62.6 °F 78% 30.11 in 10.0 mi Calm Calm - N/A   Overcast
10:53 AM 70.0 °F - 63.0 °F 78% 30.09 in 10.0 mi Calm Calm - N/A   Overcast
11:53 AM 72.0 °F - 64.0 °F 76% 30.09 in 10.0 mi East 6.9 mph - N/A   Overcast
12:53 PM 73.9 °F - 64.0 °F 71% 30.08 in 10.0 mi ESE 6.9 mph - N/A   Mostly Cloudy
1:53 PM 75.9 °F - 64.0 °F 67% 30.07 in 10.0 mi Calm Calm - N/A   Mostly Cloudy
2:19 PM 75.2 °F - 64.4 °F 69% 30.09 in 10.0 mi SE 4.6 mph - N/A   Scattered Clouds
2:45 PM 75.2 °F - 62.6 °F 65% 30.09 in 10.0 mi SSE 5.8 mph - N/A   Mostly Cloudy
2:53 PM 77.0 °F - 64.0 °F 64% 30.06 in 10.0 mi ESE 6.9 mph - N/A   Mostly Cloudy
3:36 PM 78.8 °F - 64.4 °F 61% 30.08 in 10.0 mi East 4.6 mph - N/A   Scattered Clouds
3:53 PM 78.1 °F - 64.0 °F 62% 30.05 in 10.0 mi East 3.5 mph - N/A   Partly Cloudy
4:53 PM 80.1 °F 81.9 °F 64.9 °F 60% 30.05 in 10.0 mi Variable 5.8 mph - N/A   Scattered Clouds
5:53 PM 79.0 °F - 62.1 °F 56% 30.05 in 10.0 mi ESE 6.9 mph - N/A   Clear
6:53 PM 78.1 °F - 63.0 °F 60% 30.04 in 10.0 mi East 4.6 mph - N/A   Clear
7:53 PM 75.9 °F - 64.0 °F 67% 30.05 in 10.0 mi ESE 4.6 mph - N/A   Clear
8:53 PM 73.9 °F - 64.0 °F 71% 30.06 in 10.0 mi East 6.9 mph - N/A   Clear
9:53 PM 72.0 °F - 63.0 °F 73% 30.08 in 10.0 mi ESE 5.8 mph - N/A   Clear
10:53 PM 70.0 °F - 63.0 °F 78% 30.09 in 10.0 mi ESE 5.8 mph - N/A   Clear
11:53 PM 70.0 °F - 63.0 °F 78% 30.10 in 10.0 mi East 6.9 mph - N/A   Clear